Time,TemperatureF,DewpointF,PressureIn,WindDirection,WindDirectionDegrees,WindSpeedMPH,WindSpeedGustMPH,Humidity,HourlyPrecipIn,Conditions,Clouds,dailyrainin,SoftwareType,DateUTC
2013-05-23 00:07:00,62.1,58.0,29.69,SW,225,0.0,-999.0,87,-99.99,,,0.00,weatherlink.com 1.10,2013-05-23 04:07:00,
2013-05-23 01:23:00,60.8,59.0,29.69,WSW,240,0.0,-999.0,92,-99.99,,,0.03,weatherlink.com 1.10,2013-05-23 05:23:00,
2013-05-23 01:38:00,60.4,58.0,29.69,WSW,240,0.0,-999.0,92,-99.99,,,0.03,weatherlink.com 1.10,2013-05-23 05:38:00,
2013-05-23 01:53:00,60.2,58.0,29.69,WSW,238,0.0,-999.0,92,-99.99,,,0.03,weatherlink.com 1.10,2013-05-23 05:53:00,
2013-05-23 02:08:00,60.3,58.0,29.69,SW,234,0.0,-999.0,93,-99.99,,,0.03,weatherlink.com 1.10,2013-05-23 06:08:00,
2013-05-23 02:23:00,60.0,58.0,29.69,SW,233,0.0,-999.0,92,-99.99,,,0.03,weatherlink.com 1.10,2013-05-23 06:23:00,
2013-05-23 02:39:00,59.7,58.0,29.69,SW,233,0.0,-999.0,93,-99.99,,,0.03,weatherlink.com 1.10,2013-05-23 06:39:00,
2013-05-23 02:54:00,59.4,57.0,29.69,SW,236,0.0,-999.0,93,-99.99,,,0.03,weatherlink.com 1.10,2013-05-23 06:54:00,
2013-05-23 03:09:00,59.3,57.0,29.69,SW,236,0.0,-999.0,93,-99.99,,,0.03,weatherlink.com 1.10,2013-05-23 07:09:00,
2013-05-23 03:24:00,59.0,57.0,29.70,SW,233,0.0,-999.0,93,-99.99,,,0.03,weatherlink.com 1.10,2013-05-23 07:24:00,
2013-05-23 03:39:00,58.7,57.0,29.70,WSW,242,1.0,-999.0,93,-99.99,,,0.03,weatherlink.com 1.10,2013-05-23 07:39:00,
2013-05-23 04:09:00,58.7,57.0,29.70,WSW,252,0.0,-999.0,93,-99.99,,,0.03,weatherlink.com 1.10,2013-05-23 08:09:00,
2013-05-23 04:24:00,58.8,57.0,29.70,WSW,250,5.0,-999.0,92,-99.99,,,0.03,weatherlink.com 1.10,2013-05-23 08:24:00,
2013-05-23 04:39:00,59.1,57.0,29.70,WSW,248,0.0,-999.0,92,-99.99,,,0.03,weatherlink.com 1.10,2013-05-23 08:39:00,
2013-05-23 04:54:00,59.3,57.0,29.71,West,263,6.0,-999.0,91,-99.99,,,0.03,weatherlink.com 1.10,2013-05-23 08:54:00,
2013-05-23 05:09:00,59.1,57.0,29.71,West,266,0.0,-999.0,91,-99.99,,,0.03,weatherlink.com 1.10,2013-05-23 09:09:00,
2013-05-23 05:24:00,59.1,57.0,29.71,WSW,237,4.0,-999.0,91,-99.99,,,0.03,weatherlink.com 1.10,2013-05-23 09:24:00,
2013-05-23 05:40:00,58.9,56.0,29.71,WSW,240,0.0,-999.0,91,-99.99,,,0.03,weatherlink.com 1.10,2013-05-23 09:40:00,
2013-05-23 05:55:00,58.9,57.0,29.72,WSW,242,0.0,-999.0,92,-99.99,,,0.03,weatherlink.com 1.10,2013-05-23 09:55:00,
2013-05-23 06:10:00,58.8,57.0,29.72,WSW,242,0.0,-999.0,92,-99.99,,,0.03,weatherlink.com 1.10,2013-05-23 10:10:00,
2013-05-23 06:25:00,58.9,57.0,29.73,WSW,247,6.0,-999.0,92,-99.99,,,0.03,weatherlink.com 1.10,2013-05-23 10:25:00,
2013-05-23 06:40:00,59.0,57.0,29.73,WSW,252,2.0,-999.0,92,-99.99,,,0.03,weatherlink.com 1.10,2013-05-23 10:40:00,
2013-05-23 06:55:00,59.1,57.0,29.73,WSW,248,4.0,-999.0,92,-99.99,,,0.03,weatherlink.com 1.10,2013-05-23 10:55:00,
2013-05-23 07:10:00,59.1,57.0,29.73,WSW,248,0.0,-999.0,92,-99.99,,,0.03,weatherlink.com 1.10,2013-05-23 11:10:00,
2013-05-23 07:25:00,59.1,57.0,29.74,WSW,251,0.0,-999.0,92,-99.99,,,0.03,weatherlink.com 1.10,2013-05-23 11:25:00,
2013-05-23 07:40:00,59.2,57.0,29.75,WSW,252,0.0,-999.0,92,-99.99,,,0.03,weatherlink.com 1.10,2013-05-23 11:40:00,
2013-05-23 07:55:00,58.5,56.0,29.75,West,279,0.0,-999.0,92,-99.99,,,0.03,weatherlink.com 1.10,2013-05-23 11:55:00,
2013-05-23 08:10:00,57.2,55.0,29.76,WSW,258,3.0,-999.0,93,-99.99,,,0.04,weatherlink.com 1.10,2013-05-23 12:10:00,
2013-05-23 08:26:00,56.8,55.0,29.76,West,260,0.0,-999.0,93,-99.99,,,0.06,weatherlink.com 1.10,2013-05-23 12:26:00,
2013-05-23 08:41:00,56.7,55.0,29.77,West,272,0.0,-999.0,94,-99.99,,,0.07,weatherlink.com 1.10,2013-05-23 12:41:00,
2013-05-23 08:56:00,56.1,54.0,29.77,West,264,2.0,-999.0,94,-99.99,,,0.10,weatherlink.com 1.10,2013-05-23 12:56:00,
2013-05-23 09:11:00,55.6,54.0,29.78,West,262,7.0,-999.0,94,-99.99,,,0.10,weatherlink.com 1.10,2013-05-23 13:11:00,
2013-05-23 09:26:00,54.6,53.0,29.79,WNW,282,2.0,-999.0,94,-99.99,,,0.11,weatherlink.com 1.10,2013-05-23 13:26:00,
2013-05-23 09:41:00,53.6,52.0,29.79,West,275,0.0,-999.0,94,-99.99,,,0.11,weatherlink.com 1.10,2013-05-23 13:41:00,
2013-05-23 09:56:00,53.1,51.0,29.80,West,273,4.0,-999.0,93,-99.99,,,0.11,weatherlink.com 1.10,2013-05-23 13:56:00,
2013-05-23 10:11:00,53.0,51.0,29.80,WNW,284,0.0,-999.0,94,-99.99,,,0.11,weatherlink.com 1.10,2013-05-23 14:11:00,
2013-05-23 10:26:00,52.2,50.0,29.81,West,271,8.0,-999.0,93,-99.99,,,0.11,weatherlink.com 1.10,2013-05-23 14:26:00,
2013-05-23 10:42:00,51.8,50.0,29.81,West,259,6.0,-999.0,93,-99.99,,,0.11,weatherlink.com 1.10,2013-05-23 14:42:00,
2013-05-23 10:57:00,51.2,49.0,29.82,WNW,296,8.0,-999.0,93,-99.99,,,0.11,weatherlink.com 1.10,2013-05-23 14:57:00,
2013-05-23 11:12:00,50.8,49.0,29.82,WNW,286,5.0,-999.0,94,-99.99,,,0.11,weatherlink.com 1.10,2013-05-23 15:12:00,
2013-05-23 11:27:00,50.1,48.0,29.83,West,265,3.0,-999.0,93,-99.99,,,0.11,weatherlink.com 1.10,2013-05-23 15:27:00,
2013-05-23 11:42:00,49.2,47.0,29.83,WSW,247,9.0,-999.0,92,-99.99,,,0.11,weatherlink.com 1.10,2013-05-23 15:42:00,
2013-05-23 11:57:00,49.1,47.0,29.84,West,259,12.0,-999.0,92,-99.99,,,0.11,weatherlink.com 1.10,2013-05-23 15:57:00,
2013-05-23 12:12:00,50.1,48.0,29.84,WNW,285,14.0,-999.0,92,-99.99,,,0.11,weatherlink.com 1.10,2013-05-23 16:12:00,
2013-05-23 12:27:00,50.3,48.0,29.85,WNW,287,5.0,-999.0,90,-99.99,,,0.11,weatherlink.com 1.10,2013-05-23 16:27:00,
2013-05-23 12:42:00,50.4,48.0,29.85,West,277,4.0,-999.0,90,-99.99,,,0.11,weatherlink.com 1.10,2013-05-23 16:42:00,
2013-05-23 12:57:00,50.6,48.0,29.86,NW,309,4.0,-999.0,90,-99.99,,,0.11,weatherlink.com 1.10,2013-05-23 16:57:00,
2013-05-23 13:13:00,51.6,48.0,29.86,NNW,329,8.0,-999.0,88,-99.99,,,0.11,weatherlink.com 1.10,2013-05-23 17:13:00,
2013-05-23 13:28:00,51.9,49.0,29.87,NW,312,10.0,-999.0,88,-99.99,,,0.11,weatherlink.com 1.10,2013-05-23 17:28:00,
2013-05-23 13:43:00,51.1,48.0,29.88,NW,313,5.0,-999.0,89,-99.99,,,0.11,weatherlink.com 1.10,2013-05-23 17:43:00,
2013-05-23 13:58:00,51.2,49.0,29.89,WNW,288,5.0,-999.0,91,-99.99,,,0.11,weatherlink.com 1.10,2013-05-23 17:58:00,
2013-05-23 14:13:00,51.2,49.0,29.89,NW,312,8.0,-999.0,91,-99.99,,,0.11,weatherlink.com 1.10,2013-05-23 18:13:00,
2013-05-23 14:28:00,51.3,49.0,29.89,WNW,282,10.0,-999.0,92,-99.99,,,0.11,weatherlink.com 1.10,2013-05-23 18:28:00,
2013-05-23 14:43:00,51.2,49.0,29.90,NW,323,2.0,-999.0,92,-99.99,,,0.11,weatherlink.com 1.10,2013-05-23 18:43:00,
2013-05-23 14:58:00,51.4,49.0,29.90,WNW,299,5.0,-999.0,92,-99.99,,,0.11,weatherlink.com 1.10,2013-05-23 18:58:00,
2013-05-23 15:13:00,51.9,50.0,29.91,West,279,12.0,-999.0,92,-99.99,,,0.11,weatherlink.com 1.10,2013-05-23 19:13:00,
2013-05-23 15:28:00,51.9,50.0,29.91,WNW,283,9.0,-999.0,92,-99.99,,,0.11,weatherlink.com 1.10,2013-05-23 19:28:00,
2013-05-23 15:43:00,52.1,50.0,29.92,WNW,301,6.0,-999.0,92,-99.99,,,0.11,weatherlink.com 1.10,2013-05-23 19:43:00,
2013-05-23 15:59:00,51.9,50.0,29.93,NW,316,3.0,-999.0,92,-99.99,,,0.11,weatherlink.com 1.10,2013-05-23 19:59:00,
2013-05-23 16:14:00,51.6,49.0,29.95,NW,315,8.0,-999.0,92,-99.99,,,0.11,weatherlink.com 1.10,2013-05-23 20:14:00,
2013-05-23 16:29:00,50.9,49.0,29.95,WNW,303,6.0,-999.0,93,-99.99,,,0.11,weatherlink.com 1.10,2013-05-23 20:29:00,
2013-05-23 16:44:00,50.4,49.0,29.96,WNW,292,5.0,-999.0,93,-99.99,,,0.11,weatherlink.com 1.10,2013-05-23 20:44:00,
2013-05-23 16:59:00,50.4,49.0,29.98,NW,318,10.0,-999.0,93,-99.99,,,0.11,weatherlink.com 1.10,2013-05-23 20:59:00,
2013-05-23 17:14:00,50.6,49.0,29.98,NW,325,4.0,-999.0,93,-99.99,,,0.11,weatherlink.com 1.10,2013-05-23 21:14:00,
2013-05-23 17:29:00,51.3,49.0,29.99,NW,315,0.0,-999.0,93,-99.99,,,0.11,weatherlink.com 1.10,2013-05-23 21:29:00,
2013-05-23 17:44:00,51.1,49.0,30.00,NW,326,9.0,-999.0,91,-99.99,,,0.11,weatherlink.com 1.10,2013-05-23 21:44:00,
2013-05-23 17:59:00,51.0,49.0,30.00,NW,319,4.0,-999.0,91,-99.99,,,0.11,weatherlink.com 1.10,2013-05-23 21:59:00,
2013-05-23 18:14:00,51.0,49.0,30.01,WNW,294,11.0,-999.0,91,-99.99,,,0.11,weatherlink.com 1.10,2013-05-23 22:14:00,
2013-05-23 18:30:00,50.7,48.0,30.02,WNW,302,8.0,-999.0,89,-99.99,,,0.11,weatherlink.com 1.10,2013-05-23 22:30:00,
2013-05-23 18:45:00,50.2,47.0,30.03,WNW,302,12.0,-999.0,90,-99.99,,,0.11,weatherlink.com 1.10,2013-05-23 22:45:00,
2013-05-23 19:00:00,50.1,47.0,30.03,NW,307,4.0,-999.0,89,-99.99,,,0.11,weatherlink.com 1.10,2013-05-23 23:00:00,
2013-05-23 19:15:00,50.2,47.0,30.05,NW,323,7.0,-999.0,88,-99.99,,,0.11,weatherlink.com 1.10,2013-05-23 23:15:00,
2013-05-23 19:30:00,49.7,46.0,30.05,West,272,9.0,-999.0,87,-99.99,,,0.11,weatherlink.com 1.10,2013-05-23 23:30:00,
2013-05-23 19:45:00,49.1,45.0,30.06,NNW,337,10.0,-999.0,87,-99.99,,,0.11,weatherlink.com 1.10,2013-05-23 23:45:00,
2013-05-23 20:00:00,48.8,45.0,30.07,NW,313,5.0,-999.0,87,-99.99,,,0.11,weatherlink.com 1.10,2013-05-24 00:00:00,
2013-05-23 20:15:00,48.7,45.0,30.07,NW,321,7.0,-999.0,88,-99.99,,,0.11,weatherlink.com 1.10,2013-05-24 00:15:00,
2013-05-23 20:30:00,48.7,45.0,30.08,NW,321,5.0,-999.0,88,-99.99,,,0.11,weatherlink.com 1.10,2013-05-24 00:30:00,
2013-05-23 20:45:00,48.6,45.0,30.09,WNW,292,6.0,-999.0,87,-99.99,,,0.11,weatherlink.com 1.10,2013-05-24 00:45:00,
2013-05-23 21:01:00,48.3,45.0,30.10,WNW,295,2.0,-999.0,87,-99.99,,,0.11,weatherlink.com 1.10,2013-05-24 01:01:00,
2013-05-23 21:16:00,48.3,45.0,30.10,NW,317,5.0,-999.0,87,-99.99,,,0.11,weatherlink.com 1.10,2013-05-24 01:16:00,
2013-05-23 21:31:00,48.0,44.0,30.11,WNW,301,2.0,-999.0,87,-99.99,,,0.11,weatherlink.com 1.10,2013-05-24 01:31:00,
2013-05-23 21:46:00,47.7,44.0,30.11,NW,313,7.0,-999.0,87,-99.99,,,0.11,weatherlink.com 1.10,2013-05-24 01:46:00,
2013-05-23 22:01:00,46.9,43.0,30.12,WNW,290,7.0,-999.0,86,-99.99,,,0.11,weatherlink.com 1.10,2013-05-24 02:01:00,
2013-05-23 22:16:00,46.2,43.0,30.14,NW,312,5.0,-999.0,87,-99.99,,,0.11,weatherlink.com 1.10,2013-05-24 02:16:00,
2013-05-23 22:31:00,45.8,42.0,30.14,NW,325,5.0,-999.0,87,-99.99,,,0.11,weatherlink.com 1.10,2013-05-24 02:31:00,
2013-05-23 22:46:00,45.7,42.0,30.15,NW,306,8.0,-999.0,87,-99.99,,,0.11,weatherlink.com 1.10,2013-05-24 02:46:00,
2013-05-23 23:01:00,45.7,42.0,30.15,WNW,290,9.0,-999.0,87,-99.99,,,0.11,weatherlink.com 1.10,2013-05-24 03:01:00,
2013-05-23 23:16:00,45.6,42.0,30.15,WNW,297,5.0,-999.0,87,-99.99,,,0.11,weatherlink.com 1.10,2013-05-24 03:16:00,
2013-05-23 23:32:00,45.5,42.0,30.16,NW,311,2.0,-999.0,88,-99.99,,,0.11,weatherlink.com 1.10,2013-05-24 03:32:00,
2013-05-23 23:47:00,45.6,42.0,30.16,WNW,303,0.0,-999.0,88,-99.99,,,0.11,weatherlink.com 1.10,2013-05-24 03:47:00,